Buffalo, SD

3:30 AM MDT on September 24, 2017 (GMT -0600)
Buffalo

Weather History for K2WX - March, 2014

Change the Weather History Date:

Sunday, March 9, 2014

  Actual Average Record
Temperature  
Mean Temperature 50 °F 30 °F  
Max Temperature 62 °F 41 °F 72 °F (2012)
Min Temperature 38 °F 20 °F -11 °F (2002)
Degree Days  
Heating Degree Days 15 35  
Month to date heating degree days 422 327  
Since 1 July heating degree days 6479 6124  
Cooling Degree Days 0 0  
Month to date cooling degree days 0 0  
Year to date cooling degree days 0 0  
Moisture  
Dew Point 31 °F    
Average Humidity 50    
Maximum Humidity 64    
Minimum Humidity 36    
Precipitation  
Precipitation 0.00 in 0.03 in 0.06 in (2017)
Month to date precipitation 0.15 0.19  
Year to date precipitation 0.73 0.76  
Sea Level Pressure  
Sea Level Pressure 29.75 in    
Wind  
Wind Speed 16 mph (West)    
Max Wind Speed 35 mph    
Max Gust Speed 39 mph    
T = Trace of Precipitation, MM = Missing Value Source: NWS Daily Summary

Daily Weather History Graph

Daily Weather History Graph

Search for Another Location

Airport or City:

Trip Planner

Search our weather history database for the weather conditions in past years. The results will help you decide how hot, cold, wet, or windy it might be!

Date:

Astronomy

Mar. 09, 2014 Rise Set
Actual Time 7:17 AM MDT 6:52 PM MDT
Civil Twilight 6:48 AM MDT 7:21 PM MDT
Nautical Twilight 6:13 AM MDT 7:56 PM MDT
Astronomical Twilight 5:39 AM MDT 8:30 PM MDT
Moon 12:34 PM MDT (3/9) 3:58 AM MDT (3/9)
Length of Visible Light 12h 33m
Length of Day
11h 34m
First Quarter, 61% of the Moon is Illuminated
Mar 9
First Quarter
Mar 16
Full
Mar 23
Last Quarter
Mar 30
New
Apr 7
First Quarter

Hourly Weather History & Observations

Time (MDT) Temp. Windchill Dew Point Humidity Pressure Visibility Wind Dir Wind Speed Gust Speed Precip Events Conditions
12:56 AM 42.1 °F 34.9 °F 28.9 °F 60% 29.80 in - WSW 13.8 mph - N/A   Unknown
1:56 AM 39.9 °F 33.9 °F 28.0 °F 63% 29.79 in - WNW 9.2 mph - N/A   Unknown
3:56 AM 41.0 °F 33.1 °F 28.0 °F 60% 29.78 in - West 15.0 mph - N/A   Unknown
4:56 AM 39.9 °F 31.8 °F 28.0 °F 63% 29.77 in - West 15.0 mph - N/A   Unknown
5:56 AM 39.9 °F 31.4 °F 27.0 °F 60% 29.78 in - West 16.1 mph - N/A   Unknown
6:56 AM 39.0 °F 31.8 °F 27.0 °F 62% 29.79 in - West 11.5 mph - N/A   Unknown
7:56 AM 39.9 °F 33.9 °F 28.0 °F 63% 29.78 in - WSW 9.2 mph - N/A   Unknown
8:56 AM 46.0 °F 40.2 °F 28.0 °F 50% 29.76 in - West 12.7 mph - N/A   Unknown
9:56 AM 51.1 °F - 30.0 °F 44% 29.73 in - WSW 17.3 mph - N/A   Unknown
10:56 AM 57.0 °F - 32.0 °F 39% 29.73 in - West 23.0 mph 28.8 mph N/A   Unknown
11:56 AM 57.9 °F - 32.0 °F 37% 29.72 in - West 27.6 mph 34.5 mph N/A   Unknown
12:56 PM 60.1 °F - 33.1 °F 36% 29.72 in - West 25.3 mph - N/A   Unknown
1:56 PM 57.0 °F - 34.0 °F 42% 29.71 in - West 20.7 mph - N/A   Unknown
2:56 PM 59.0 °F - 35.1 °F 41% 29.70 in - West 18.4 mph - N/A   Unknown
3:56 PM 61.0 °F - 33.1 °F 35% 29.71 in - West 17.3 mph - N/A   Unknown
4:56 PM 59.0 °F - 35.1 °F 41% 29.71 in - West 13.8 mph - N/A   Unknown
5:56 PM 59.0 °F - 36.0 °F 42% 29.72 in - West 15.0 mph - N/A   Unknown
6:56 PM 51.1 °F - 34.0 °F 52% 29.76 in - West 16.1 mph - N/A   Unknown
7:56 PM 48.0 °F - 32.0 °F 54% 29.76 in - WSW 12.7 mph - N/A   Unknown
8:56 PM 48.9 °F - 32.0 °F 52% 29.76 in - WSW 11.5 mph - N/A   Unknown
9:56 PM 53.1 °F - 32.0 °F 45% 29.75 in - West 15.0 mph - N/A   Unknown
10:56 PM 46.9 °F - 32.0 °F 56% 29.74 in - West 16.1 mph - N/A   Unknown
11:56 PM 45.0 °F 38.2 °F 30.9 °F 58% 29.73 in - West 15.0 mph - N/A   Unknown
12:56 AM 50.0 °F - 32.0 °F 50% 29.72 in - West 18.4 mph 28.8 mph N/A   Unknown